Regional Weather Roundup
Issued by NWS

Home | Current Version | Previous Version | Graphics & Text | Print | Product List | Glossary On
Versions: 1 2 3 4 5 6 7 8 9 10 11 12 13 14 15 16 17 18 19 20 21 22 23 24 25 26 27 28 29 30 31 32 33 34 35 36 37 38 39 40 41 42 43 44 45 46 47 48 49 50
000
ASUS43 KMKX 201800
RWRWI

WISCONSIN REGIONAL WEATHER ROUNDUP
NATIONAL WEATHER SERVICE MILWAUKEE/SULLIVAN WI
1200 PM CST THU NOV 20 2014

NOTE: "FAIR" INDICATES FEW OR NO CLOUDS BELOW 12,000 FEET WITH NO
SIGNIFICANT WEATHER AND/OR OBSTRUCTIONS TO VISIBILITY.

WIZ001-002-006>008-014>016-023>028-201900-
NORTHWEST WISCONSIN

CITY           SKY/WX    TMP DP  RH WIND       PRES   REMARKS
SUPERIOR ARPT  SUNNY     13   0  56 NW12G17   30.05S WCI   0
ASHLAND        LGT SNOW  12   3  67 W13G21    30.01S WCI  -3
6HR MIN TEMP:   8; 6HR MAX TEMP:  12; 6HR PCP:  0.01;

HAYWARD        PTSUNNY   11  -2  56 W13       30.00R WCI  -4
6HR MIN TEMP:   3; 6HR MAX TEMP:  11;

SIREN          SUNNY     13  -1  53 NW13      30.07R WCI  -1
CUMBERLAND     MOSUNNY   10   0  61 W18       30.03S WCI  -8
RICE LAKE      SUNNY     12  -1  56 W15       30.06S WCI  -4
6HR MIN TEMP:   4; 6HR MAX TEMP:  12;

CHETEK         SUNNY     12  -1  54 MISG      30.05R
LADYSMITH      MOSUNNY   12   1  60 W15       30.01S WCI  -4
EAU CLAIRE     SUNNY     13  -1  54 W13       30.07S WCI  -2
6HR MIN TEMP:   8; 6HR MAX TEMP:  13;

MENOMONIE      SUNNY     15  -1  49 W13       30.09S WCI   1
6HR MIN TEMP:   9; 6HR MAX TEMP:  15;

NEW RICHMOND   SUNNY     14  -3  47 NW14      30.09S WCI  -1
OSCEOLA        SUNNY     14  -2  48 NW10G16   30.13S WCI   1
$$

WIZ003>005-009-010-017-018-201900-
NORTH CENTRAL WISCONSIN

CITY           SKY/WX    TMP DP  RH WIND       PRES   REMARKS
MANITOWISH WTR PTSUNNY   10  -1  63 W13G21    29.89R WCI  -6
ARBOR VITAE    PTSUNNY   11   1  63 NW12G20   29.89R WCI  -3
WOODRUFF       PTSUNNY   11   1  63 NW12G20   29.89R WCI  -3
RHINELANDER    CLOUDY    10   0  63 W18       29.89R WCI  -8
6HR MIN TEMP:   4; 6HR MAX TEMP:  11; 6HR PCP: TRACE;

EAGLE RIVER    PTSUNNY   11   0  59 W13G25    29.86R WCI  -4
LAND O LAKES   CLOUDY    12   2  63 W10G22    29.86R WCI  -1
PHILLIPS       CLOUDY     9  -2  62 W8        29.94R WCI  -4
6HR MIN TEMP:   4; 6HR MAX TEMP:   9;

TOMAHAWK       CLOUDY    10  -1  61 NW13G21   29.93S WCI  -5
MEDFORD        PTSUNNY   10   0  62 NW12G18   29.95R WCI  -4
MERRILL        CLOUDY    11   1  62 NW13      29.94S WCI  -4
$$

WIZ029-030-035-036-043>047-201900-
CENTRAL WISCONSIN

CITY           SKY/WX    TMP DP  RH WIND       PRES   REMARKS
WAUSAU         CLOUDY    12   1  61 W17       29.95S WCI  -5
6HR MIN TEMP:   7; 6HR MAX TEMP:  12;

MOSINEE        CLOUDY    10   1  67 W20G25    29.97S WCI  -8
MARSHFIELD     SUNNY     13   0  56 NW15G23   29.98S WCI  -3
6HR MIN TEMP:   9; 6HR MAX TEMP:  14;

STEVENS POINT  PTSUNNY   12   0  57 W9G18     29.99R WCI   0
WAUPACA        SUNNY     18   2  50 W16G22    30.00R WCI   4
WAUTOMA        NOT AVBL
WISC RAPIDS    MOSUNNY   14   0  53 W13       30.01F WCI   0
6HR MIN TEMP:  11; 6HR MAX TEMP:  15;

CAMP DOUGLAS   NOT AVBL
$$

WIZ011>013-019>022-031-037>040-048>050-201900-
NORTHEAST WISCONSIN

CITY           SKY/WX    TMP DP  RH WIND       PRES   REMARKS
ANTIGO         PTSUNNY   10  -1  62 W16       29.90S WCI  -7
SHAWANO        SUNNY     19   3  50 W13G21    29.96S WCI   5
6HR MIN TEMP:  13; 6HR MAX TEMP:  19;

OCONTO         SUNNY     19   4  52 W14G24    29.93S WCI   5
STURGEON BAY   SUNNY     19   3  49 W16G22    29.91R WCI   5
6HR MIN TEMP:  16; 6HR MAX TEMP:  19;

GREEN BAY      SUNNY     18   4  54 W21G28    29.96S WCI   1
6HR MIN TEMP:  13; 6HR MAX TEMP:  19;

MANITOWOC      NOT AVBL
APPLETON       MOSUNNY   18   1  49 W18       29.97R WCI   2
CLINTONVILLE   MOSUNNY   18   3  53 W14G21    29.96S WCI   4
OSHKOSH        MOSUNNY   18   4  54 W12G21    29.99R WCI   5
6HR MIN TEMP:  16; 6HR MAX TEMP:  18; 6HR PCP: TRACE;

$$

WIZ032>034-041-042-053>061-201900-
SOUTHWEST WISCONSIN

CITY           SKY/WX    TMP DP  RH WIND       PRES   REMARKS
LA CROSSE      SUNNY     21   1  41 NW18      30.10S WCI   6
6HR MIN TEMP:  14; 6HR MAX TEMP:  21;

SPARTA         SUNNY     19   1  44 W13G21    30.07S WCI   6
VIROQUA        SUNNY     19  -2  40 NW18G26   30.04S WCI   3
BOSCOBEL       SUNNY     23   3  42 W15G30    30.11S WCI  10
6HR MIN TEMP:  12; 6HR MAX TEMP:  23;

PRAIRIE DU CHI SUNNY     22   5  49 W14       30.13S WCI   9
PLATTEVILLE    SUNNY     22   6  51 W17G28    30.10R WCI   7
$$

WIZ056-057-062-063-064-067-068-201900-
SOUTH CENTRAL WISCONSIN

CITY           SKY/WX    TMP DP  RH WIND       PRES   REMARKS
REEDSBURG      SUNNY     20   2  46 W16G24    30.04S WCI   5
BARABOO/DELLS  SUNNY     19   2  46 W15G23    30.02S WCI   5
LONE ROCK      NOT AVBL
MINERAL POINT  SUNNY     23   3  42 W21G26    30.04S WCI   8
MADISON        MOSUNNY   22   3  44 NW14      30.04R WCI   9
6HR MIN TEMP:  15; 6HR MAX TEMP:  23;

MIDDLETON      SUNNY     25   4  40 W15       30.03F WCI  12
WATERTOWN      MOSUNNY   21   7  54 W17       30.01F WCI   6
MONROE         SUNNY     23   7  50 W17G28    30.04F WCI   9
JANESVILLE     MOSUNNY   25   5  42 NW20G25   30.05S WCI  11
$$

WIZ051-052-058>065-066-070>072-201900-
SOUTHEAST WISCONSIN

CITY           SKY/WX    TMP DP  RH WIND       PRES   REMARKS
MILWAUKEE      MOSUNNY   23   4  44 W14G23    30.01S WCI  11
6HR MIN TEMP:  17; 6HR MAX TEMP:  23;

WAUKESHA       PTSUNNY   19   7  58 NW12G25   30.00F WCI   7
MILWAUKEE/TIMM NOT AVBL
RACINE         MOSUNNY   23   6  48 W17G25    30.03S WCI   9
6HR MIN TEMP:  16; 6HR MAX TEMP:  23;

BURLINGTON     MOSUNNY   21   7  54 W13G24    30.03S WCI   9
KENOSHA        MOSUNNY   24   6  46 W22G28    30.02S WCI   9
6HR MIN TEMP:  16; 6HR MAX TEMP:  24;

FOND DU LAC    SUNNY     19   5  54 NW20G25   29.99S WCI   3
6HR MIN TEMP:  16; 6HR MAX TEMP:  19; 6HR PCP: TRACE;

SHEBOYGAN      MOSUNNY   19   6  57 W17G28    29.97S WCI   4
6HR MIN TEMP:  16; 6HR MAX TEMP:  19; 6HR PCP: TRACE;

WEST BEND      MOSUNNY   19   5  53 W16G28    29.99R WCI   5
JUNEAU         MOSUNNY   18   5  56 W10G20    30.01S WCI   7
$$

LSZ147-162-201900-
LAKE SUPERIOR

STATION/POSITION TIME  TEMP    WIND        PRES    WAVE
                       AIR SEA DIR/SP/G            HT/PER
                 (UTC) (F)     (DEG/KT/KT) (MB)    (FT/S)
DEVILS ISLAND    1700   10     310/ 20/ 28 1017.0R
PORT WING        1700   12     290/ 15/ 19 1016.9R
SAXON HARBOR     1700   12     270/ 10/ 14 1015.2R
$$

LMZ867-665-643>646-201900-
LAKE MICHIGAN

STATION/POSITION TIME  TEMP    WIND        PRES    WAVE
                       AIR SEA DIR/SP/G            HT/PER
                 (UTC) (F)     (DEG/KT/KT) (MB)    (FT/S)
CHAMBERS ISLAND  1700   19     250/  8/ 15 1012.2R
N MID LAKE BUOY  1650   21 42  300/ 19/ 27 1011.8R   4/ 5
NORTHPORT PIER   1700   20     300/ 12/ 19 1011.9S
SISTER BAY       1728          330/ 20/ 23   N/A
ALGOMA LAKESHORE 1613          310/ 12/ 21   N/A
KEWAUNEE LAKESHO 1700   17     290/ 15/ 19 1012.8R
SHEBOYGAN LAKESH 1700   17 34  280/ 21/ 26 1016.2R
PORT WASHINGTON  1700   20     280/ 11/ 19 1016.6
ATWATER BUOY     1700   22     270/ 19/ 25 1016.7R
MILWAUKEE LAKESH 1700   20     300/ 15/ 20   N/A
S MID LAKE BUOY  1650   24 43  280/ 23/ 27 1016.6R   7/ 6
KENOSHA   LAKESH 1700   22     290/ 16/ 26 1016.6S
$$

TC  - TEMPERATURE IN CELSIUS
VSB - VISIBILITY IN STATUTE MILES
WCI - WIND CHILL INDEX
HX  - HEAT INDEX




USA.gov is the U.S. government's official web portal to all federal, state and local government web resources and services.